Погода в Туркменбаши

Погода в Туркменбаши : погода сейчас, прогноз погоды и архив. Всё, что Вы хотите узнать о погоде в Туркменбаши!

Поиск расширенной информации на нашем сайте:

Другие новости

Новости СМИ2

Главная страница сайта

Новости сайта

03.07.2017

Напоминаем, что на нашем специализированном сайте Метеоцентр.Азия вы можете получить высокодетализированные автоматические прогнозы погоды по пунктам России, СНГ и мира в авиационном формате (включающие направление и скорость ветра, видимость, явления погоды, количество и форму облачности, нижнюю и верхнюю границу облачности).

Рекомендуем: Видеоэндоскопы mitcorp видеоэндоскоп.

Погода в Туркменбаши - сегодня

Время (UTC), дата Ветер
(°,м/с) 
Видим.   Явления Облачность Т
(°С)
Тd
(°С)
f(%) Тe
(°С)
Pmin
(гПа)
dP
(гПа)
Po
(мм)
O2
(г/м3)
Тmin Tmax R s Состояние
почвы
06 18.02.18 050 (СВ) 20000 м    8/0 средняя, верхняя 
[Ac trans|Ci fib]
+5.4 -0.4 66 +3  1019.8  -0.5  757  299  -0.8         
09 18.02.18 090 (В) 20000 м    10/0 средняя, верхняя 
[Ac trans|Ci fib]
+10.5 +0.9 51 +10  1015.8  -3.7  754  293           
12 18.02.18 050 (СВ) 20000 м    10/0 средняя 
[Ac As]
+12.2 +1.1 47 +11  1012.7  -3.1  752  290           
15 18.02.18 080 (В) 4000 м  в посл. час дождь  10/0 средняя 
[Ac As]
+9.6 +2.5 61 +7  1012.6  -0.1  752  292    +12.2  0.0     
18 18.02.18 110 (В) 4000 м  слаб. дождь  10/4 1000 м средняя 
[Sc|Ac As]
+8.2 +4.1 75 +6  1012.7  752  293    +12.2  0.0     
21 18.02.18 тихо ()   4000 м  в посл. час дождь  10/10 900 м 
[Sc]
+7 +4.6 85 +7  1013  0.3  752  295           
00 19.02.18 тихо ()   4000 м  {дождь}  10/10 1080 м 
[Sc]
+6.4 +5.7 95 +6  1013.1  752  295           
03 19.02.18 160 (Ю) 4000 м    10/10 300 м 
[Sc]
+5.8 +4.6 92 +4  1014.1  753  296         
06 19.02.18 260 (З) 10 км    10/8 180 м средняя 
[St|Ac As]
+4.5 +3.3 92 +2  1015.6  1.4  754  298         
09 19.02.18 290 (З) 10 км    10/10 270 м 
[St]
+4.4 +2.2 86 +3  1016.2  0.6  754  299           
12 19.02.18 290 (З) 10 км  в посл. час морось  10/10 270 м 
[St]
+4.3 +3.1 92 +3  1016.2  754  299           
15 19.02.18 290 (З) 4000 м    10/10 570 м 
[Sc]
+4.8 +2.3 84 +2  1018.4  2.2  756  299    +6.4  0.0     
18 19.02.18 290 (З) 4000 м    10/10 630 м 
[Sc]
+4.4 +2.4 87 +4  1020.1  1.7  757  300    +6.4  0.0     
21 19.02.18 290 (З) 4000 м    10/10 540 м 
[Sc]
+4.2 +2.5 89 +2  1019.9  -0.2  757  300           
00 20.02.18 270 (З) 4000 м    10/10 660 м 
[Sc]
+5.2 +3.5 89 +4  1019.9  757  299           
03 20.02.18 130 (ЮВ) 4000 м    3/3 1000 м 
[Sc]
+3.2 +1.1 86 1027.6  -0.7  763  304           
06 20.02.18 170 (Ю) 20000 м    8/8 1300 м 
[Sc]
+3.9 +2.7 92 +2  1030.2  1.2  765  303  +0.5    0.8     
09 20.02.18 280 (З) 20000 м    10/10 930 м 
[Sc]
+7.4 +3.2 75 +5  1021.2  0.2  758  297           
12 20.02.18 290 (З) 20000 м    10/10 900 м 
[Sc]
+7.6 +3.4 75 +6  1021  -0.2  758  297           
15 20.02.18 тихо ()   4000 м    4/4 1000 м 
[Sc]
+4.3 +2.6 89 +4  1021.4  0.3  758  300    +7.9       
18 20.02.18 050 (СВ) 4000 м    3/0 верхняя 
[Ci fib]
+0.2 -4.6 70 -1  1032.9  1.3  767  309    +7.8       
21 20.02.18 тихо ()   4000 м    10/10 1200 м 
[Sc]
+3.4 +1.9 90 +3  1022.5  0.4  759  302           
00 21.02.18 тихо ()   4000 м    10/10 1140 м 
[Sc]
+4 +2.2 88 +4  1022.6  0.1  759  301           
03 21.02.18 050 (СВ) 4000 м    10/10 1080 м 
[Sc]
+3.8 +3.1 95 +5  1022.6  759  301  +2.9         
06 21.02.18 060 (СВ) 20000 м    9/0 верхняя 
[Ci fib]
+5.2 +2.5 83 +3  1022.7  0.1  759  300  +2.9         
Время (UTC), дата Ветер
(°,м/с) 
Видим.   Явления Облачность Т
(°С)
Тd
(°С)
f(%) Тe
(°С)
Pmin
(гПа)
dP
(гПа)
Po
(мм)
O2
(г/м3)
Тmin Tmax R s Состояние
почвы

Для получения пояснительной информации подведите курсор к названию столбца.

ПОГОДА в Туркменбаши - архив

Всё, что Вы хотите узнать о погоде в Туркменбаши - удобно и подробно!

Выберите нужную дату (начиная с 1 января 2015* года) и нажмите кнопку "Найти".
Будут отображены архивные сводки погоды по пункту Туркменбаши, начиная с указанной даты.


Отображать данные в формате CSV (для использования в таблицах Excel)


Внимание! Наш архив погоды предназначен исключительно для личного некоммерческого использования в познавательных целях. Если Вам необходимы официальные справки о состоянии погоды (для производственных, юридических, коммерческих и т.п. целей), обращайтесь в органы Росгидромета.

*Примечание: данная дата относится к архиву по метеостанциям СССР (Россия, СНГ, Балтия).
Архив по метеостанциям Зарубежной Европы и Азии (кроме Китая) хранится 10 дней, по другим регионам земного шара (Китай, Африка, Америка, Австралия, Океания) - 1 день.

Туркменбаши - район местоположения метеостанции


Название, широта, долгота, высота метеостанции:
Туркменбаши (Красноводск) 40.1°ш. 53°д. -13 м над ур. моря [Туркменистан]

Дополнительная информация

В oтличие oт бoльшинства пoгoдных сайтoв мы публикуем пoдрoбную метеoинфoрмацию в детальнoм прoфессиoнальнoм фoрмате.

Характеристики температуры и влажнoсти вoздуха измеряются на высoте 2 м в тени вдали oт зданий и деревьев.
Скoрoсть ветра измеряется на высoте 10 м (на урoвне рoста челoвека скoрoсть ветра ниже в 1.5-2 раза). Если метеoстанция нахoдится в гoрoде или в лесу, тo скoрoсть ветра занижена на 2-4 м/с пo сравнению с oткрытым местoм. Скoрoсть ветра над акватoриями крупных рек и oзёр, а также на вершинах хoлмoв на 2-5 м/с выше, чем в oбычных услoвиях.
Атмoсфернoе давление в разных тoчках местнoсти мoжет значительнo oтличаться oт давления на метеoстанции, в зависимoсти oт услoвий рельефа (при пoдъёме на 10 м давление пoнижается примернo на 1 мм рт.ст.).